Oakland, MD

5:37 AM EST on November 23, 2017 (GMT -0500)
Oakland

Weather History for K2G4 - December, 2012

Change the Weather History Date:

Sunday, December 2, 2012

  Actual Average (KMGW) Record (KMGW)
Temperature  
Mean Temperature 46 °F -  
Max Temperature 53 °F 46 °F 74 °F (1982)
Min Temperature 39 °F 28 °F 7 °F (1976)
Degree Days  
Heating Degree Days 19    
Moisture  
Dew Point 42 °F    
Average Humidity 84    
Maximum Humidity 100    
Minimum Humidity 62    
Precipitation  
Precipitation 0.00 in - - ()
Sea Level Pressure  
Sea Level Pressure 30.19 in    
Wind  
Wind Speed 11 mph (SW)    
Max Wind Speed 18 mph    
Max Gust Speed 25 mph    
Visibility 7 miles    
Events Fog    
Averages and records for this station are not official NWS values.
T = Trace of Precipitation, MM = Missing Value Source: NWS Daily Summary

Daily Weather History Graph

Daily Weather History Graph

Search for Another Location

Airport or City:

Trip Planner

Search our weather history database for the weather conditions in past years. The results will help you decide how hot, cold, wet, or windy it might be!

Date:

Astronomy

Dec. 02, 2012 Rise Set
Actual Time 7:20 AM EST 4:53 PM EST
Civil Twilight 6:50 AM EST 5:23 PM EST
Nautical Twilight 6:16 AM EST 5:56 PM EST
Astronomical Twilight 5:44 AM EST 6:29 PM EST
Moon 8:39 PM EST (12/2) 10:09 AM EST (12/2)
Length of Visible Light 10h 33m
Length of Day
9h 33m
Waning Gibbous, 86% of the Moon is Illuminated
Dec 2
Waning Gibbous
Dec 6
Last Quarter
Dec 13
New
Dec 20
First Quarter
Dec 28
Full

Hourly Weather History & Observations

Time (EST) Temp. Windchill Dew Point Humidity Pressure Visibility Wind Dir Wind Speed Gust Speed Precip Events Conditions
12:05 AM 41.0 °F 34.7 °F 33.8 °F 76% 30.27 in 10.0 mi SSE 10.4 mph - N/A   Clear
12:25 AM 41.0 °F 35.2 °F 33.8 °F 76% 30.27 in 10.0 mi South 9.2 mph - N/A   Clear
12:45 AM 39.2 °F 33.0 °F 33.8 °F 81% 30.26 in 10.0 mi SSE 9.2 mph - N/A   Clear
1:10 AM 41.0 °F 35.2 °F 33.8 °F 76% 30.26 in 10.0 mi South 9.2 mph - N/A   Clear
1:30 AM 41.0 °F 35.2 °F 33.8 °F 76% 30.26 in 10.0 mi South 9.2 mph - N/A   Clear
1:50 AM 41.0 °F 34.7 °F 35.6 °F 81% 30.25 in 10.0 mi South 10.4 mph - N/A   Clear
2:10 AM 41.0 °F 35.2 °F 35.6 °F 81% 30.25 in 10.0 mi South 9.2 mph - N/A   Clear
2:55 AM 42.8 °F 37.0 °F 35.6 °F 76% 30.26 in 10.0 mi SSW 10.4 mph - N/A   Clear
3:15 AM 42.8 °F 37.0 °F 35.6 °F 76% 30.25 in 10.0 mi South 10.4 mph - N/A   Mostly Cloudy
3:35 AM 42.8 °F 36.6 °F 35.6 °F 76% 30.24 in 10.0 mi SSW 11.5 mph - N/A   Scattered Clouds
4:00 AM 42.8 °F 37.0 °F 35.6 °F 76% 30.24 in 10.0 mi SSW 10.4 mph - N/A   Clear
4:20 AM 42.8 °F 37.5 °F 35.6 °F 76% 30.24 in 10.0 mi SSW 9.2 mph - N/A   Scattered Clouds
4:40 AM 44.6 °F 39.7 °F 37.4 °F 76% 30.24 in 10.0 mi SSW 9.2 mph - N/A   Scattered Clouds
5:00 AM 44.6 °F 39.7 °F 37.4 °F 76% 30.24 in 10.0 mi SW 9.2 mph - N/A   Clear
5:25 AM 44.6 °F 39.7 °F 37.4 °F 76% 30.24 in 10.0 mi SW 9.2 mph - N/A   Clear
5:45 AM 44.6 °F 39.2 °F 37.4 °F 76% 30.24 in 10.0 mi SW 10.4 mph - N/A   Clear
6:05 AM 44.6 °F 38.8 °F 37.4 °F 76% 30.23 in 10.0 mi SW 11.5 mph - N/A   Clear
6:30 AM 44.6 °F 39.2 °F 37.4 °F 76% 30.23 in 10.0 mi SW 10.4 mph 16.1 mph N/A   Clear
6:50 AM 46.4 °F 41.5 °F 37.4 °F 71% 30.23 in 10.0 mi SW 10.4 mph - N/A   Clear
7:10 AM 44.6 °F 39.2 °F 37.4 °F 76% 30.23 in 10.0 mi SSW 10.4 mph - N/A   Clear
7:30 AM 44.6 °F 39.2 °F 37.4 °F 76% 30.23 in 10.0 mi SSW 10.4 mph 18.4 mph N/A   Clear
7:50 AM 46.4 °F 41.5 °F 39.2 °F 76% 30.23 in 10.0 mi SSW 10.4 mph - N/A   Clear
8:15 AM 46.4 °F 41.1 °F 39.2 °F 76% 30.23 in 10.0 mi SSW 11.5 mph 17.3 mph N/A   Clear
8:35 AM 46.4 °F 39.8 °F 39.2 °F 76% 30.23 in 10.0 mi SSW 16.1 mph 19.6 mph N/A   Clear
8:55 AM 48.2 °F - 39.2 °F 71% 30.22 in 10.0 mi SSW 13.8 mph - N/A   Clear
9:15 AM 48.2 °F - 41.0 °F 76% 30.22 in 10.0 mi SSW 11.5 mph - N/A   Clear
9:40 AM 50.0 °F - 41.0 °F 71% 30.22 in 10.0 mi SSW 12.7 mph - N/A   Clear
10:00 AM 50.0 °F - 41.0 °F 71% 30.22 in 10.0 mi SW 12.7 mph 18.4 mph N/A   Clear
10:20 AM 50.0 °F - 41.0 °F 71% 30.21 in 10.0 mi SSW 12.7 mph 20.7 mph N/A   Clear
10:40 AM 51.8 °F - 41.0 °F 67% 30.21 in 10.0 mi SW 12.7 mph 24.2 mph N/A   Clear
11:05 AM 53.6 °F - 41.0 °F 62% 30.20 in 10.0 mi SW 18.4 mph 25.3 mph N/A   Clear
12:50 PM 53.6 °F - 42.8 °F 67% 30.14 in 10.0 mi SW 10.4 mph 20.7 mph N/A   Clear
1:10 PM 53.6 °F - 42.8 °F 67% 30.13 in 10.0 mi SW 10.4 mph 18.4 mph N/A   Scattered Clouds
1:30 PM 53.6 °F - 42.8 °F 67% 30.13 in 10.0 mi WSW 11.5 mph 19.6 mph N/A   Overcast
1:55 PM 51.8 °F - 44.6 °F 76% 30.13 in 10.0 mi SW 8.1 mph 17.3 mph N/A   Overcast
2:15 PM 51.8 °F - 44.6 °F 76% 30.12 in 10.0 mi WSW 8.1 mph - N/A   Overcast
2:35 PM 50.0 °F - 46.4 °F 87% 30.12 in 7.0 mi SW 8.1 mph 18.4 mph N/A   Overcast
2:55 PM 50.0 °F - 48.2 °F 94% 30.12 in 7.0 mi SW 11.5 mph - N/A   Overcast
3:20 PM 48.2 °F - 48.2 °F 100% 30.11 in 7.0 mi SSW 12.7 mph 17.3 mph N/A   Overcast
3:40 PM 48.2 °F - 48.2 °F 100% 30.11 in 7.0 mi SW 11.5 mph - N/A   Overcast
4:00 PM 48.2 °F - 48.2 °F 100% 30.12 in 3.0 mi SW 15.0 mph 20.7 mph N/A   Overcast
4:20 PM 48.2 °F - 48.2 °F 100% 30.12 in 5.0 mi SW 13.8 mph 19.6 mph N/A   Overcast
4:45 PM 48.2 °F - 48.2 °F 100% 30.12 in 3.0 mi SW 11.5 mph 17.3 mph N/A   Overcast
5:05 PM 48.2 °F - 48.2 °F 100% 30.12 in 2.0 mi SW 12.7 mph 20.7 mph N/A   Overcast
5:25 PM 48.2 °F - 48.2 °F 100% 30.12 in 2.0 mi WSW 11.5 mph 20.7 mph N/A   Overcast
6:30 PM 48.2 °F - 48.2 °F 100% 30.13 in 2.0 mi SW 16.1 mph 24.2 mph N/A   Overcast
6:50 PM 48.2 °F - 48.2 °F 100% 30.13 in 3.0 mi SW 15.0 mph 24.2 mph N/A   Overcast
7:35 PM 50.0 °F - 50.0 °F 100% 30.14 in 5.0 mi WSW 12.7 mph 25.3 mph N/A   Overcast
7:55 PM 50.0 °F - 50.0 °F 100% 30.15 in 4.0 mi WSW 17.3 mph 24.2 mph N/A   Overcast
8:35 PM 50.0 °F - 50.0 °F 100% 30.15 in 2.0 mi WSW 13.8 mph 24.2 mph N/A   Overcast
9:00 PM 50.0 °F - 50.0 °F 100% 30.15 in 1.2 mi WSW 16.1 mph 24.2 mph N/A   Overcast
9:15 PM 50.0 °F - 50.0 °F 100% 30.16 in 1.5 mi WSW 12.7 mph 21.9 mph N/A   Overcast
9:40 PM 50.0 °F - 50.0 °F 100% 30.16 in 0.8 mi WSW 10.4 mph - N/A   Overcast
10:00 PM 50.0 °F - 50.0 °F 100% 30.16 in 0.8 mi WSW 16.1 mph 23.0 mph N/A   Overcast
10:25 PM 50.0 °F - 50.0 °F 100% 30.17 in 0.5 mi WSW 15.0 mph 23.0 mph N/A Fog Fog
10:45 PM 50.0 °F - 50.0 °F 100% 30.17 in 0.2 mi West 11.5 mph 19.6 mph N/A Fog Fog
11:05 PM 50.0 °F - 50.0 °F 100% 30.17 in 0.2 mi WSW 11.5 mph 18.4 mph N/A Fog Fog
11:30 PM 50.0 °F - 50.0 °F 100% 30.18 in 0.2 mi West 8.1 mph 17.3 mph N/A Fog Fog
11:50 PM 50.0 °F - 50.0 °F 100% 30.18 in 0.2 mi West 9.2 mph - N/A Fog Fog